TimeCDT,TemperatureF,Dew PointF,Humidity,Sea Level PressureIn,VisibilityMPH,Wind Direction,Wind SpeedMPH,Gust SpeedMPH,PrecipitationIn,Events,Conditions,WindDirDegrees,DateUTC
12:53 AM,30.9,18.0,59,30.27,10.0,NNE,11.5,-,N/A,,Overcast,20,2013-03-25 05:53:00
1:53 AM,30.0,16.0,56,30.28,10.0,North,9.2,-,N/A,,Mostly Cloudy,360,2013-03-25 06:53:00
2:53 AM,28.0,17.1,63,30.30,10.0,North,10.4,-,N/A,,Partly Cloudy,360,2013-03-25 07:53:00
3:53 AM,25.0,17.1,72,30.29,10.0,North,8.1,-,N/A,,Scattered Clouds,350,2013-03-25 08:53:00
4:53 AM,23.0,17.1,78,30.30,10.0,North,9.2,-,N/A,,Clear,350,2013-03-25 09:53:00
5:53 AM,21.0,14.0,74,30.31,10.0,North,9.2,-,N/A,,Clear,350,2013-03-25 10:53:00
6:53 AM,19.9,14.0,78,30.34,10.0,NNW,6.9,-,N/A,,Clear,340,2013-03-25 11:53:00
7:53 AM,19.9,12.9,74,30.37,10.0,NNW,9.2,-,N/A,,Clear,330,2013-03-25 12:53:00
8:53 AM,23.0,12.9,65,30.38,10.0,NNW,10.4,-,N/A,,Clear,340,2013-03-25 13:53:00
9:53 AM,26.1,10.9,53,30.39,10.0,North,12.7,-,N/A,,Clear,350,2013-03-25 14:53:00
10:53 AM,28.9,12.0,49,30.40,10.0,North,10.4,-,N/A,,Clear,350,2013-03-25 15:53:00
11:53 AM,34.0,12.0,40,30.38,10.0,North,10.4,17.3,N/A,,Clear,360,2013-03-25 16:53:00
12:53 PM,36.0,12.9,39,30.37,10.0,NW,9.2,20.7,N/A,,Scattered Clouds,320,2013-03-25 17:53:00
1:53 PM,39.0,14.0,36,30.35,10.0,NNW,9.2,18.4,N/A,,Mostly Cloudy,330,2013-03-25 18:53:00
2:53 PM,39.0,15.1,38,30.33,10.0,North,9.2,-,N/A,,Overcast,350,2013-03-25 19:53:00
3:53 PM,41.0,15.1,35,30.32,10.0,NNW,11.5,19.6,N/A,,Overcast,330,2013-03-25 20:53:00
4:53 PM,43.0,14.0,31,30.30,10.0,NNW,8.1,-,N/A,,Scattered Clouds,330,2013-03-25 21:53:00
5:53 PM,43.0,15.1,32,30.30,10.0,North,11.5,24.2,N/A,,Scattered Clouds,360,2013-03-25 22:53:00
6:53 PM,42.1,12.0,29,30.31,10.0,NW,8.1,18.4,N/A,,Partly Cloudy,320,2013-03-25 23:53:00
7:53 PM,37.9,15.1,39,30.32,10.0,NNE,8.1,-,N/A,,Clear,20,2013-03-26 00:53:00
8:53 PM,33.1,15.1,48,30.34,10.0,NNE,4.6,-,N/A,,Clear,20,2013-03-26 01:53:00
9:53 PM,32.0,15.1,50,30.37,10.0,NE,5.8,-,N/A,,Clear,40,2013-03-26 02:53:00
10:53 PM,30.0,12.9,49,30.39,10.0,ENE,4.6,-,N/A,,Clear,70,2013-03-26 03:53:00
11:53 PM,27.0,12.9,56,30.40,10.0,ENE,3.5,-,N/A,,Clear,70,2013-03-26 04:53:00